Rantoul, IL

4:38 PM CST on February 07, 2016 (GMT -0600)
Rantoul

Weather History for KTIP - January, 2013

Change the Weather History Date:

Sunday, January 6, 2013

  Actual Average (KCMI) Record (KCMI)
Temperature  
Mean Temperature 26 °F 25 °F  
Max Temperature 36 °F 33 °F 61 °F (2008)
Min Temperature 16 °F 18 °F -13 °F (2014)
Degree Days  
Heating Degree Days 39 40  
Month to date heating degree days 236  
Since 1 July heating degree days 2517  
Cooling Degree Days 0 0  
Month to date cooling degree days 0  
Year to date cooling degree days 0  
Moisture  
Dew Point 25 °F    
Average Humidity 84    
Maximum Humidity 95    
Minimum Humidity 77    
Precipitation  
Precipitation 0.00 in 0.08 in 0.27 in (1950)
Month to date precipitation 0.53  
Year to date precipitation 0.53  
Sea Level Pressure  
Sea Level Pressure 30.17 in    
Wind  
Wind Speed 13 mph (West)    
Max Wind Speed 22 mph    
Max Gust Speed 28 mph    
Visibility 9 miles    
Events      
T = Trace of Precipitation, MM = Missing Value Source: NWS Daily Summary

Daily Weather History Graph

Daily Weather History Graph

Search for Another Location

Airport or City:

Trip Planner

Search our weather history database for the weather conditions in past years. The results will help you decide how hot, cold, wet, or windy it might be!

Date:

Astronomy

Jan. 06, 2013 Rise Set
Actual Time 7:15 AM CST 4:41 PM CST
Civil Twilight 6:45 AM CST 5:12 PM CST
Nautical Twilight 6:11 AM CST 5:46 PM CST
Astronomical Twilight 5:38 AM CST 6:19 PM CST
Moon 1:29 AM CST (1/6) 12:09 PM CST (1/6)
Length of Visible Light 10h 27m
Length of Day
9h 26m
Waning Crescent, 33% of the Moon is Illuminated
Jan 6
Waning Crescent
Jan 11
New
Jan 18
First Quarter
Jan 26
Full
Feb 3
Last Quarter

Hourly Weather History & Observations

Time (CST) Temp. Windchill Dew Point Humidity Pressure Visibility Wind Dir Wind Speed Gust Speed Precip Events Conditions
12:15 AM 36.5 °F 28.2 °F 32.0 °F 84% 30.03 in 10.0 mi SSW 12.7 mph 18.4 mph N/A   Overcast
12:35 AM 36.7 °F 28.4 °F 32.0 °F 83% 30.02 in 10.0 mi SSW 12.7 mph - N/A   Overcast
12:55 AM 36.7 °F 28.0 °F 32.0 °F 83% 30.01 in 10.0 mi SSW 13.8 mph 18.4 mph N/A   Overcast
1:15 AM 36.9 °F 28.2 °F 32.0 °F 83% 30.01 in 10.0 mi SSW 13.8 mph 20.7 mph N/A   Overcast
1:35 AM 36.7 °F 28.0 °F 32.0 °F 83% 30.01 in 10.0 mi SSW 13.8 mph 17.3 mph N/A   Overcast
1:55 AM 36.5 °F 28.2 °F 32.0 °F 84% 30.01 in 10.0 mi SSW 12.7 mph 18.4 mph N/A   Overcast
2:15 AM 36.1 °F 26.5 °F 32.0 °F 85% 30.01 in 10.0 mi SW 16.1 mph - N/A   Overcast
2:35 AM 36.1 °F 26.9 °F 32.2 °F 86% 30.01 in 10.0 mi SSW 15.0 mph - N/A   Overcast
2:55 AM 36.0 °F 26.7 °F 32.2 °F 86% 30.01 in 10.0 mi SW 15.0 mph 19.6 mph N/A   Overcast
3:15 AM 35.8 °F 26.9 °F 32.4 °F 87% 30.01 in 10.0 mi SW 13.8 mph - N/A   Overcast
3:35 AM 35.8 °F 27.8 °F 32.4 °F 87% 30.00 in 10.0 mi SW 11.5 mph - N/A   Overcast
3:55 AM 35.6 °F 27.5 °F 32.5 °F 89% 30.00 in 10.0 mi SW 11.5 mph - N/A   Overcast
4:15 AM 35.6 °F 28.6 °F 32.7 °F 89% 29.99 in 10.0 mi SW 9.2 mph - N/A   Overcast
4:35 AM 35.8 °F 28.3 °F 32.9 °F 89% 29.99 in 10.0 mi SW 10.4 mph - N/A   Overcast
4:55 AM 36.0 °F 28.5 °F 32.9 °F 89% 29.99 in 10.0 mi WSW 10.4 mph - N/A   Overcast
5:15 AM 34.0 °F 23.0 °F 30.2 °F 86% 30.01 in 10.0 mi West 18.4 mph 24.2 mph N/A   Overcast
5:35 AM 32.2 °F 20.7 °F 28.6 °F 87% 30.02 in 10.0 mi West 18.4 mph 24.2 mph N/A   Overcast
5:55 AM 32.0 °F 19.5 °F 26.6 °F 80% 30.04 in 10.0 mi West 21.9 mph 27.6 mph N/A   Overcast
6:15 AM 31.1 °F 18.3 °F 25.7 °F 80% 30.05 in 10.0 mi West 21.9 mph 25.3 mph N/A   Overcast
6:35 AM 30.2 °F 17.8 °F 24.6 °F 80% 30.05 in 10.0 mi West 19.6 mph 27.6 mph N/A   Overcast
6:55 AM 30.2 °F 18.9 °F 25.2 °F 82% 30.06 in 10.0 mi West 16.1 mph - N/A   Overcast
7:15 AM 30.0 °F 19.5 °F 25.0 °F 82% 30.06 in 10.0 mi West 13.8 mph - N/A   Overcast
7:35 AM 29.8 °F 18.0 °F 25.0 °F 82% 30.06 in 10.0 mi West 17.3 mph 23.0 mph N/A   Overcast
7:55 AM 29.8 °F 18.0 °F 24.8 °F 81% 30.07 in 7.0 mi WNW 17.3 mph - N/A   Overcast
8:15 AM 30.2 °F 20.8 °F 24.8 °F 80% 30.08 in 7.0 mi WNW 11.5 mph 19.6 mph N/A   Overcast
8:35 AM 29.5 °F 16.5 °F 24.6 °F 82% 30.09 in 7.0 mi West 20.7 mph 24.2 mph N/A   Overcast
8:55 AM 29.1 °F 16.4 °F 23.9 °F 81% 30.10 in 7.0 mi WNW 19.6 mph 25.3 mph N/A   Overcast
9:15 AM 28.8 °F 15.9 °F 23.7 °F 81% 30.11 in 7.0 mi WNW 19.6 mph 23.0 mph N/A   Overcast
9:35 AM 28.2 °F 16.3 °F 23.0 °F 81% 30.12 in 7.0 mi WNW 16.1 mph 21.9 mph N/A   Mostly Cloudy
9:55 AM 27.9 °F 15.9 °F 23.0 °F 82% 30.14 in 7.0 mi WNW 16.1 mph 21.9 mph N/A   Mostly Cloudy
10:15 AM 27.1 °F 14.1 °F 22.3 °F 82% 30.14 in 7.0 mi WNW 18.4 mph 24.2 mph N/A   Mostly Cloudy
10:35 AM 27.7 °F 14.1 °F 22.8 °F 82% 30.15 in 7.0 mi WNW 20.7 mph 26.5 mph N/A   Scattered Clouds
10:55 AM 27.5 °F 15.0 °F 22.5 °F 81% 30.15 in 7.0 mi WNW 17.3 mph 24.2 mph N/A   Clear
11:15 AM 28.4 °F 15.8 °F 23.0 °F 80% 30.16 in 7.0 mi WNW 18.4 mph 27.6 mph N/A   Clear
11:35 AM 27.5 °F 14.6 °F 21.4 °F 78% 30.16 in 7.0 mi WNW 18.4 mph 23.0 mph N/A   Clear
11:55 AM 27.1 °F 13.4 °F 21.4 °F 79% 30.16 in 7.0 mi WNW 20.7 mph 27.6 mph N/A   Clear
12:15 PM 27.9 °F 15.5 °F 21.9 °F 78% 30.16 in 10.0 mi WNW 17.3 mph 24.2 mph N/A   Clear
12:35 PM 28.9 °F 16.9 °F 22.8 °F 78% 30.16 in 10.0 mi WNW 17.3 mph 26.5 mph N/A   Clear
12:55 PM 28.9 °F 18.2 °F 23.0 °F 78% 30.17 in 10.0 mi WNW 13.8 mph 23.0 mph N/A   Clear
1:15 PM 30.6 °F 17.9 °F 24.1 °F 77% 30.18 in 10.0 mi WNW 20.7 mph - N/A   Scattered Clouds
1:35 PM 30.4 °F 18.4 °F 24.1 °F 77% 30.18 in 10.0 mi WNW 18.4 mph - N/A   Scattered Clouds
1:55 PM 30.7 °F 19.2 °F 24.4 °F 77% 30.20 in 10.0 mi WNW 17.3 mph 20.7 mph N/A   Scattered Clouds
2:15 PM 30.7 °F 19.2 °F 24.6 °F 78% 30.20 in 10.0 mi WNW 17.3 mph - N/A   Clear
2:35 PM 30.9 °F 21.2 °F 24.8 °F 78% 30.21 in 10.0 mi WNW 12.7 mph - N/A   Clear
2:55 PM 31.5 °F 22.3 °F 25.2 °F 78% 30.22 in 10.0 mi West 11.5 mph 18.4 mph N/A   Clear
3:15 PM 31.1 °F 21.9 °F 25.7 °F 80% 30.24 in 10.0 mi West 11.5 mph - N/A   Clear
3:35 PM 31.1 °F 20.5 °F 25.5 °F 80% 30.25 in 10.0 mi West 15.0 mph - N/A   Scattered Clouds
3:55 PM 30.7 °F 20.9 °F 25.5 °F 81% 30.26 in 10.0 mi WNW 12.7 mph - N/A   Scattered Clouds
4:15 PM 30.2 °F 19.8 °F 24.8 °F 80% 30.27 in 10.0 mi West 13.8 mph - N/A   Clear
4:35 PM 29.1 °F 20.6 °F 24.3 °F 82% 30.27 in 10.0 mi West 9.2 mph - N/A   Clear
4:55 PM 28.0 °F 18.6 °F 23.7 °F 84% 30.28 in 10.0 mi West 10.4 mph - N/A   Clear
5:15 PM 27.3 °F 19.1 °F 23.0 °F 84% 30.28 in 10.0 mi West 8.1 mph - N/A   Clear
5:35 PM 26.4 °F 18.0 °F 22.6 °F 86% 30.30 in 10.0 mi West 8.1 mph - N/A   Clear
5:55 PM 26.6 °F 18.2 °F 22.6 °F 85% 30.31 in 10.0 mi West 8.1 mph - N/A   Clear
6:15 PM 24.8 °F 15.3 °F 21.7 °F 88% 30.33 in 10.0 mi West 9.2 mph - N/A   Clear
6:35 PM 24.8 °F 16.1 °F 21.6 °F 87% 30.33 in 10.0 mi West 8.1 mph - N/A   Clear
6:55 PM 25.2 °F 15.7 °F 21.7 °F 87% 30.33 in 10.0 mi WNW 9.2 mph - N/A   Clear
7:15 PM 24.4 °F 15.6 °F 21.2 °F 87% 30.34 in 10.0 mi West 8.1 mph - N/A   Clear
7:35 PM 23.4 °F 17.4 °F 20.8 °F 90% 30.34 in 10.0 mi WSW 4.6 mph - N/A   Clear
7:55 PM 21.4 °F 13.8 °F 19.2 °F 91% 30.35 in 10.0 mi WSW 5.8 mph - N/A   Clear
8:15 PM 23.4 °F 15.2 °F 21.2 °F 91% 30.35 in 7.0 mi West 6.9 mph - N/A   Clear
8:35 PM 22.6 °F 14.3 °F 20.5 °F 91% 30.36 in 7.0 mi West 6.9 mph - N/A   Clear
8:55 PM 23.0 °F 18.4 °F 21.2 °F 93% 30.36 in 7.0 mi West 3.5 mph - N/A   Clear
9:15 PM 21.6 °F 16.8 °F 19.9 °F 93% 30.36 in 7.0 mi West 3.5 mph - N/A   Clear
9:35 PM 20.1 °F - 18.7 °F 94% 30.37 in 7.0 mi Calm Calm - N/A   Clear
9:55 PM 19.9 °F - 18.3 °F 93% 30.36 in 7.0 mi Calm Calm - N/A   Clear
10:15 PM 19.4 °F - 17.6 °F 93% 30.36 in 7.0 mi Calm Calm - N/A   Clear
10:35 PM 19.9 °F - 18.3 °F 93% 30.36 in 7.0 mi Calm Calm - N/A   Clear
10:55 PM 18.1 °F - 16.7 °F 94% 30.36 in 7.0 mi Calm Calm - N/A   Clear
11:15 PM 17.6 °F - 15.8 °F 93% 30.36 in 5.0 mi Calm Calm - N/A   Clear
11:35 PM 16.3 °F - 14.7 °F 93% 30.37 in 5.0 mi Calm Calm - N/A   Clear
11:55 PM 17.2 °F - 16.0 °F 95% 30.36 in 5.0 mi Calm Calm - N/A   Clear